KC1KAD Weather Reports


Display with metric or nautical units.
time (UTC)temp
F
wind
direction
speed
MPH
gust
MPH
rain 1hr
in
rain 24hr
in
rain mn
in
humidity
%
barometer
mb
20260505151901 68 181 1.0 3.0 0.00 0.03 0.00 47 1016.8
20260505151126 68 0 1.0 4.0 0.00 0.03 0.00 50 1017.2
20260505150402 68 159 0.0 4.0 0.00 0.03 0.00 52 1017.2
20260505140402 61 0 1.0 3.0 0.00 0.03 0.00 64 1017.2
20260505124901 51 26 1.0 2.0 0.00 0.03 0.00 81 1016.7
20260505124402 51 326 1.0 2.0 0.00 0.03 0.00 82 1016.6
20260505123902 51 295 1.0 2.0 0.00 0.03 0.00 83 1016.7
20260505123402 50 9 1.0 3.0 0.00 0.03 0.00 83 1016.5
20260505122902 50 331 1.0 3.0 0.00 0.03 0.00 83 1016.4
20260505122401 50 6 1.0 2.0 0.00 0.03 0.00 83 1016.5
20260505121901 50 301 1.0 3.0 0.00 0.03 0.00 84 1016.4
20260505120903 49 334 1.0 3.0 0.00 0.03 0.00 83 1016.4
20260505120402 49 239 0.0 2.0 0.00 0.03 0.00 84 1016.3
20260505115902 49 281 0.0 2.0 0.00 0.03 0.00 84 1016.2
20260505115402 49 2 1.0 2.0 0.00 0.03 0.00 85 1016.1
20260505114902 48 273 1.0 2.0 0.00 0.03 0.00 85 1016.1
20260505114402 48 246 1.0 2.0 0.00 0.03 0.00 85 1016.0
20260505113903 48 351 1.0 2.0 0.00 0.03 0.00 85 1016.1
20260505113402 48 256 1.0 4.0 0.00 0.03 0.00 85 1016.0
20260505112903 48 311 2.0 4.0 0.00 0.03 0.00 85 1016.0
20260505112622 48 345 1.0 4.0 0.00 0.03 0.00 85 1015.8
20260505112126 48 354 1.0 2.0 0.00 0.03 0.00 85 1015.6
20260505111402 48 147 1.0 2.0 0.00 0.03 0.00 84 1015.6
20260505110902 48 0 1.0 2.0 0.00 0.03 0.00 84 1015.6
20260505110402 48 281 1.0 2.0 0.00 0.03 0.00 84 1015.7
20260505101902 49 282 1.0 2.0 0.00 0.03 0.00 82 1015.3
20260505100902 49 288 1.0 3.0 0.00 0.03 0.00 82 1015.4
20260505095902 49 253 1.0 3.0 0.00 0.03 0.00 80 1015.5
20260505095402 49 309 2.0 5.0 0.00 0.03 0.00 79 1015.6
20260505094902 50 329 2.0 5.0 0.00 0.03 0.00 78 1015.7
20260505094402 51 345 1.0 3.0 0.00 0.03 0.00 78 1015.5
20260505093902 51 357 1.0 3.0 0.00 0.03 0.00 77 1015.5
20260505093401 51 327 1.0 2.0 0.00 0.03 0.00 76 1015.5
20260505093125 52 30 1.0 2.0 0.00 0.03 0.00 74 1015.5
20260505092402 52 11 1.0 2.0 0.00 0.03 0.00 71 1015.5
20260505091902 53 210 1.0 2.0 0.00 0.03 0.00 70 1015.5
20260505091620 53 28 1.0 3.0 0.00 0.03 0.00 71 1015.5
20260505090901 53 219 1.0 3.0 0.00 0.03 0.00 70 1015.6
20260505090401 53 214 1.0 2.0 0.00 0.03 0.00 69 1015.5
20260505085901 53 229 1.0 2.0 0.00 0.03 0.00 69 1015.5
20260505085620 53 225 1.0 2.0 0.00 0.03 0.00 69 1015.5
20260505084402 53 220 1.0 2.0 0.00 0.03 0.00 69 1015.6
20260505083901 53 309 1.0 2.0 0.00 0.03 0.00 69 1015.6
20260505083401 53 62 1.0 2.0 0.00 0.03 0.00 69 1015.5
20260505082901 53 14 1.0 2.0 0.00 0.03 0.00 68 1015.5
20260505082401 53 243 1.0 2.0 0.00 0.03 0.00 68 1015.6
20260505081902 53 184 1.0 2.0 0.00 0.03 0.00 68 1015.5
20260505081621 54 235 0.0 2.0 0.00 0.03 0.00 68 1015.5
20260505080902 54 214 0.0 2.0 0.00 0.03 0.00 67 1015.5
20260505080402 54 259 1.0 2.0 0.00 0.03 0.00 67 1015.4
20260505075902 54 268 1.0 2.0 0.00 0.03 0.00 67 1015.4
20260505075402 54 268 0.0 2.0 0.00 0.03 0.00 67 1015.5
20260505074902 54 23 1.0 2.0 0.00 0.03 0.00 67 1015.4
20260505074403 54 0 1.0 2.0 0.00 0.03 0.00 67 1015.4
20260505073902 54 337 0.0 2.0 0.00 0.03 0.00 68 1015.4
20260505073403 54 263 1.0 5.0 0.00 0.03 0.00 67 1015.4
20260505072903 54 270 1.0 5.0 0.00 0.03 0.00 67 1015.4
20260505072403 55 281 0.0 2.0 0.00 0.03 0.00 67 1015.4
20260505071402 55 290 1.0 3.0 0.00 0.03 0.00 67 1015.4
20260505070902 55 272 1.0 3.0 0.00 0.03 0.00 67 1015.5
20260505070627 55 311 1.0 3.0 0.00 0.03 0.00 67 1015.5
20260505070120 55 277 1.0 3.0 0.00 0.03 0.00 67 1015.4
20260505065629 54 312 1.0 3.0 0.00 0.03 0.00 67 1015.4
20260505064902 54 323 1.0 3.0 0.00 0.03 0.00 68 1015.3
20260505064402 54 291 1.0 2.0 0.00 0.03 0.00 68 1015.3
20260505063902 54 241 0.0 2.0 0.00 0.03 0.00 69 1015.3
20260505063402 53 353 1.0 2.0 0.00 0.03 0.00 70 1015.4
20260505062902 53 277 1.0 2.0 0.00 0.03 0.00 70 1015.4
20260505062402 53 1 1.0 2.0 0.00 0.03 0.00 70 1015.3
20260505061901 54 256 0.0 2.0 0.00 0.03 0.00 71 1015.4
20260505061402 54 250 1.0 2.0 0.00 0.03 0.00 70 1015.4
20260505061123 54 300 1.0 2.0 0.00 0.03 0.00 70 1015.5
20260505060402 54 0 1.0 2.0 0.00 0.03 0.00 70 1015.5
20260505055902 54 0 1.0 2.0 0.00 0.03 0.00 70 1015.5
20260505055626 54 0 1.0 2.0 0.00 0.03 0.00 69 1015.6
20260505054901 54 282 1.0 2.0 0.00 0.03 0.00 70 1015.5
20260505054402 54 282 1.0 2.0 0.00 0.03 0.00 69 1015.5
20260505053402 55 294 1.0 2.0 0.00 0.03 0.00 68 1015.5
20260505052901 55 29 1.0 2.0 0.00 0.03 0.00 68 1015.5
20260505052401 55 274 1.0 2.0 0.00 0.03 0.00 67 1015.5
20260505051901 56 211 1.0 2.0 0.00 0.03 0.00 66 1015.5
20260505051402 56 239 2.0 3.0 0.00 0.03 0.00 65 1015.5
20260505050902 57 205 2.0 3.0 0.00 0.03 0.00 64 1015.5
20260505050624 57 220 1.0 2.0 0.00 0.03 0.00 63 1015.6
20260505041629 60 203 2.0 4.0 0.00 0.03 0.00 57 1015.7
20260505040902 60 202 2.0 4.0 0.00 0.03 0.00 58 1015.8
20260505040402 59 190 2.0 4.0 0.00 0.03 0.00 58 1015.8
20260505035902 59 194 2.0 4.0 0.00 0.03 0.03 59 1015.8
20260505034902 58 214 2.0 3.0 0.00 0.03 0.03 61 1015.8
20260505034403 58 198 2.0 3.0 0.00 0.03 0.03 62 1015.8
20260505033903 58 191 2.0 3.0 0.00 0.03 0.03 62 1016.0
20260505033402 58 197 2.0 3.0 0.00 0.03 0.03 62 1016.1
20260505032902 58 193 2.0 3.0 0.00 0.03 0.03 62 1016.1
20260505032402 58 206 2.0 3.0 0.00 0.03 0.03 63 1016.1
20260505031902 58 205 2.0 3.0 0.00 0.03 0.03 64 1016.2
20260505031402 58 186 2.0 3.0 0.00 0.03 0.03 64 1016.2
20260505030902 58 195 1.0 3.0 0.00 0.03 0.03 64 1016.2
20260505030402 58 200 1.0 3.0 0.00 0.03 0.03 65 1016.2
20260505025901 58 207 1.0 2.0 0.00 0.03 0.03 65 1016.2
20260505025402 58 234 1.0 2.0 0.00 0.03 0.03 65 1016.1
20260505024902 58 209 1.0 2.0 0.00 0.03 0.03 64 1016.2
20260505024402 58 239 1.0 2.0 0.00 0.03 0.03 64 1016.1
20260505023902 58 221 1.0 2.0 0.00 0.03 0.03 64 1016.1
20260505022902 59 219 1.0 2.0 0.00 0.03 0.03 63 1016.0
20260505022402 60 208 1.0 2.0 0.00 0.03 0.03 62 1016.0
20260505021902 60 223 1.0 2.0 0.00 0.03 0.03 61 1016.0
20260505021402 60 218 1.0 2.0 0.00 0.03 0.03 61 1016.0
20260505020902 61 211 1.0 2.0 0.00 0.03 0.03 61 1016.0
20260505020402 62 0 1.0 2.0 0.00 0.03 0.03 60 1015.8
20260505015902 62 213 1.0 2.0 0.00 0.03 0.03 57 1015.8
20260505015401 63 190 2.0 4.0 0.00 0.03 0.03 55 1015.8
20260505014903 63 196 2.0 4.0 0.00 0.03 0.03 55 1015.7
20260505014402 63 200 2.0 4.0 0.00 0.03 0.03 56 1015.6
20260505013902 63 200 2.0 4.0 0.00 0.03 0.03 55 1015.6
20260505013621 63 193 2.0 4.0 0.00 0.03 0.03 55 1015.5
20260505012902 63 212 2.0 3.0 0.00 0.03 0.03 56 1015.5
20260505012624 63 181 2.0 3.0 0.00 0.03 0.03 57 1015.5
20260505012125 63 191 2.0 4.0 0.00 0.03 0.03 57 1015.5
20260505011401 63 192 2.0 4.0 0.00 0.03 0.03 55 1015.5
20260505010901 63 184 2.0 4.0 0.00 0.03 0.03 55 1015.5
20260505010401 63 181 2.0 4.0 0.00 0.03 0.03 56 1015.4
20260505010124 63 189 2.0 3.0 0.00 0.03 0.03 56 1015.4
20260505005620 64 198 2.0 4.0 0.00 0.03 0.03 56 1015.3
20260505005121 64 190 3.0 4.0 0.00 0.03 0.03 55 1015.3
20260505004403 64 190 3.0 4.0 0.00 0.03 0.03 55 1015.3
20260505003902 64 187 3.0 4.0 0.00 0.03 0.03 55 1015.2
20260505003634 64 194 3.0 4.0 0.00 0.03 0.03 55 1015.2
20260505002903 64 209 3.0 4.0 0.00 0.03 0.03 55 1015.1
20260505002403 64 205 3.0 4.0 0.00 0.03 0.03 56 1015.0
20260505001902 64 194 3.0 4.0 0.00 0.03 0.03 55 1015.0
20260505001402 64 200 2.0 4.0 0.00 0.03 0.03 55 1015.0
20260505000902 65 191 3.0 4.0 0.00 0.03 0.03 54 1015.0
20260505000403 65 193 3.0 4.0 0.00 0.03 0.03 53 1014.9
20260504235902 65 194 2.0 4.0 0.00 0.03 0.03 52 1014.9
20260504235402 66 196 3.0 4.0 0.00 0.03 0.03 51 1014.9
20260504235119 66 191 2.0 4.0 0.00 0.03 0.03 51 1014.9
20260504234402 66 196 2.0 4.0 0.00 0.03 0.03 49 1014.9
20260504233902 66 213 3.0 4.0 0.00 0.03 0.03 50 1014.9
20260504233402 67 177 3.0 4.0 0.00 0.03 0.03 51 1014.8
20260504232902 67 196 2.0 4.0 0.00 0.03 0.03 51 1014.9
20260504232621 67 180 2.0 4.0 0.00 0.03 0.03 50 1014.9
20260504231902 67 199 3.0 6.0 0.00 0.03 0.03 50 1014.8
20260504231403 67 183 3.0 6.0 0.00 0.03 0.03 50 1014.7
20260504230902 67 186 3.0 5.0 0.00 0.03 0.03 50 1014.7
20260504230402 67 186 2.0 5.0 0.00 0.03 0.03 50 1014.7
20260504225902 68 190 2.0 5.0 0.00 0.03 0.03 50 1014.7
20260504225620 68 203 3.0 5.0 0.00 0.03 0.03 49 1014.7
20260504224901 68 184 2.0 4.0 0.00 0.03 0.03 48 1014.7
20260504224401 68 191 2.0 4.0 0.00 0.03 0.03 48 1014.7
20260504223901 69 158 2.0 4.0 0.00 0.03 0.03 47 1014.7
20260504223401 69 185 2.0 4.0 0.00 0.03 0.03 46 1014.6
20260504222901 69 200 2.0 6.0 0.00 0.03 0.03 46 1014.7
20260504222400 69 174 3.0 6.0 0.00 0.03 0.03 46 1014.7
20260504221901 69 187 3.0 6.0 0.00 0.03 0.03 46 1014.7
20260504221400 69 172 3.0 6.0 0.00 0.03 0.03 46 1014.6
20260504220900 69 181 3.0 6.0 0.00 0.03 0.03 46 1014.6
20260504220400 69 160 4.0 7.0 0.00 0.03 0.03 46 1014.6
20260504215901 70 170 5.0 9.0 0.00 0.03 0.03 45 1014.6
20260504215401 70 207 5.0 9.0 0.00 0.03 0.03 45 1014.5
20260504214400 70 183 4.0 6.0 0.00 0.03 0.03 44 1014.5
20260504213900 71 179 4.0 6.0 0.00 0.03 0.03 44 1014.5
20260504213400 71 171 5.0 8.0 0.00 0.03 0.03 43 1014.3
20260504212900 71 283 5.0 8.0 0.00 0.03 0.03 42 1014.3
20260504212624 71 171 5.0 8.0 0.00 0.03 0.03 41 1014.3
20260504211900 71 154 5.0 8.0 0.00 0.03 0.03 41 1014.3
20260504211400 71 166 5.0 9.0 0.00 0.03 0.03 43 1014.2
20260504210901 72 177 4.0 9.0 0.00 0.03 0.03 41 1014.1
20260504210401 72 165 4.0 7.0 0.00 0.03 0.03 40 1014.2
20260504210121 72 179 3.0 6.0 0.00 0.03 0.03 41 1014.2
20260504205401 72 144 4.0 5.0 0.00 0.03 0.03 38 1014.1
20260504204901 73 193 3.0 5.0 0.00 0.03 0.03 36 1014.1
20260504204402 73 185 3.0 4.0 0.00 0.03 0.03 35 1014.1
20260504203902 73 195 3.0 5.0 0.00 0.03 0.03 33 1014.1
20260504202901 73 196 3.0 4.0 0.00 0.03 0.03 30 1014.1
20260504202401 74 184 2.0 4.0 0.00 0.03 0.03 32 1014.1
20260504201901 74 171 2.0 7.0 0.00 0.03 0.03 30 1014.1
20260504201401 74 169 3.0 7.0 0.00 0.03 0.03 29 1014.1
20260504200901 74 184 3.0 5.0 0.01 0.03 0.03 30 1014.2
20260504200401 73 173 3.0 5.0 0.01 0.03 0.03 30 1014.1
20260504195901 73 181 3.0 5.0 0.01 0.03 0.03 32 1014.1
20260504195401 73 182 3.0 5.0 0.02 0.03 0.03 32 1014.1
20260504194901 73 186 3.0 5.0 0.02 0.03 0.03 31 1014.1
20260504194401 73 170 3.0 5.0 0.02 0.03 0.03 32 1014.3
20260504194121 73 178 3.0 5.0 0.02 0.03 0.03 33 1014.2
20260504193622 74 161 3.0 6.0 0.02 0.03 0.03 33 1014.2
20260504192902 74 164 3.0 6.0 0.02 0.03 0.03 32 1014.6
20260504192621 74 182 3.0 6.0 0.02 0.03 0.03 33 1015.0
20260504192124 74 260 3.0 6.0 0.02 0.03 0.03 34 1015.1
20260504191622 74 163 3.0 6.0 0.02 0.03 0.03 34 1015.1
20260504190901 74 185 3.0 6.0 0.02 0.02 0.02 34 1015.2
20260504190400 74 209 3.0 5.0 0.02 0.02 0.02 34 1015.4
20260504185901 74 146 3.0 5.0 0.02 0.02 0.01 35 1015.5
20260504185624 74 207 2.0 5.0 0.01 0.01 0.01 35 1015.7
20260504184901 74 144 2.0 5.0 0.01 0.01 0.01 37 1015.8
20260504184401 73 162 3.0 5.0 0.01 0.01 0.01 36 1016.0
20260504183901 73 181 2.0 5.0 0.01 0.01 0.01 38 1016.3
20260504183401 73 203 2.0 4.0 0.01 0.01 0.01 39 1015.7
20260504182401 73 166 3.0 5.0 0.01 0.01 0.01 38 1016.1
20260504181900 73 182 2.0 5.0 0.01 0.01 0.01 39 1016.4
20260504181400 73 153 2.0 4.0 0.01 0.01 0.01 41 1016.6
20260504180902 72 0 2.0 4.0 0.00 0.00 0.00 42 1016.4
20260504180625 71 168 2.0 5.0 0.00 0.00 0.00 41 1016.2
20260504175901 71 155 2.0 5.0 0.00 0.00 0.00 41 1016.3
20260504175401 71 0 2.0 4.0 0.00 0.00 0.00 40 1016.3
20260504174901 72 149 2.0 4.0 0.00 0.00 0.00 41 1016.3
20260504174401 72 59 1.0 4.0 0.00 0.00 0.00 40 1016.3
20260504174124 72 180 1.0 3.0 0.00 0.00 0.00 40 1016.3
20260504173401 71 65 1.0 3.0 0.00 0.00 0.00 42 1016.5
20260504173122 71 0 1.0 3.0 0.00 0.00 0.00 42 1016.8
20260504172401 71 14 1.0 3.0 0.00 0.00 0.00 41 1017.4
20260504171901 70 358 1.0 3.0 0.00 0.00 0.00 42 1017.5
20260504170901 69 254 2.0 4.0 0.00 0.00 0.00 44 1017.5
20260504170401 69 194 1.0 4.0 0.00 0.00 0.00 46 1017.4
20260504160401 65 71 1.0 3.0 0.00 0.00 0.00 47 1018.2